New Bedford, MA

5:56 PM EDT on May 26, 2017 (GMT -0400)
New Bedford Regional

Weather History for KEWB - August, 2014

Change the Weather History Date:

Thursday, August 28, 2014

  Actual Average Record
Temperature  
Mean Temperature 72 °F -  
Max Temperature 82 °F 80 °F 96 °F (1991)
Min Temperature 60 °F 66 °F 50 °F (2008)
Cooling Degree Days 7    
Growing Degree Days 22 (Base 50)    
Moisture  
Dew Point 57 °F    
Average Humidity 63    
Maximum Humidity 93    
Minimum Humidity 35    
Precipitation  
Precipitation 0.07 in - - ()
Sea Level Pressure  
Sea Level Pressure 29.83 in    
Wind  
Wind Speed 4 mph (NW)    
Max Wind Speed 12 mph    
Max Gust Speed 20 mph    
Visibility 10 miles    
Events      
Averages and records for this station are not official NWS values.
T = Trace of Precipitation, MM = Missing Value Source: NWS Daily Summary

Daily Weather History Graph

Daily Weather History Graph

Search for Another Location

Airport or City:

Trip Planner

Search our weather history database for the weather conditions in past years. The results will help you decide how hot, cold, wet, or windy it might be!

Date:

Astronomy

Aug. 28, 2014 Rise Set
Actual Time 6:05 AM EDT 7:23 PM EDT
Civil Twilight 5:36 AM EDT 7:52 PM EDT
Nautical Twilight 5:02 AM EDT 8:26 PM EDT
Astronomical Twilight 4:25 AM EDT 9:03 PM EDT
Moon 8:58 AM EDT (8/28) 8:42 PM EDT (8/28)
Length of Visible Light 14h 15m
Length of Day
13h 18m
Waxing Crescent, 8% of the Moon is Illuminated
Aug 28
Waxing Crescent
Sep 2
First Quarter
Sep 8
Full
Sep 15
Last Quarter
Sep 24
New

Hourly Weather History & Observations

Time (EDT) Temp. Heat Index Dew Point Humidity Pressure Visibility Wind Dir Wind Speed Gust Speed Precip Events Conditions
12:53 AM 69.1 °F - 63.0 °F 81% 29.83 in 10.0 mi Calm Calm - N/A   Mostly Cloudy
1:53 AM 69.1 °F - 64.0 °F 84% 29.81 in 10.0 mi SSW 4.6 mph - N/A   Overcast
2:53 AM 68.0 °F - 64.9 °F 90% 29.81 in 10.0 mi Calm Calm - 0.07 in   Scattered Clouds
3:53 AM 66.9 °F - 64.9 °F 93% 29.78 in 10.0 mi Calm Calm - N/A   Clear
4:53 AM 66.9 °F - 64.9 °F 93% 29.78 in 10.0 mi NW 4.6 mph - N/A   Partly Cloudy
5:53 AM 66.9 °F - 64.9 °F 93% 29.79 in 9.0 mi NW 3.5 mph - N/A   Clear
6:53 AM 66.9 °F - 64.0 °F 90% 29.79 in 10.0 mi NNW 5.8 mph - N/A   Partly Cloudy
7:53 AM 70.0 °F - 63.0 °F 78% 29.80 in 10.0 mi Variable 4.6 mph - N/A   Scattered Clouds
8:53 AM 72.0 °F - 62.1 °F 71% 29.81 in 10.0 mi NNW 6.9 mph - N/A   Mostly Cloudy
9:53 AM 75.0 °F - 60.1 °F 60% 29.81 in 10.0 mi NW 8.1 mph - N/A   Clear
10:53 AM 78.8 °F - 60.8 °F 54% 29.79 in 10.0 mi North 8.1 mph - N/A   Clear
11:53 AM 80.1 °F 80.6 °F 57.9 °F 47% 29.78 in 10.0 mi NW 9.2 mph - N/A   Clear
12:53 PM 79.0 °F - 55.0 °F 44% 29.78 in 10.0 mi NNW 8.1 mph - N/A   Partly Cloudy
1:53 PM 78.1 °F - 54.0 °F 43% 29.79 in 10.0 mi NNW 6.9 mph 19.6 mph N/A   Scattered Clouds
2:53 PM 81.0 °F - 51.1 °F 35% 29.79 in 10.0 mi WNW 11.5 mph 19.6 mph N/A   Clear
3:53 PM 81.0 °F 80.4 °F 53.1 °F 38% 29.80 in 10.0 mi WNW 9.2 mph - N/A   Scattered Clouds
4:53 PM 78.1 °F - 53.1 °F 42% 29.81 in 10.0 mi NW 6.9 mph - N/A   Partly Cloudy
5:53 PM 75.9 °F - 53.1 °F 45% 29.83 in 10.0 mi NW 4.6 mph - N/A   Overcast
6:53 PM 73.9 °F - 53.1 °F 48% 29.86 in 10.0 mi NNW 5.8 mph - N/A   Partly Cloudy
7:53 PM 70.0 °F - 52.0 °F 53% 29.89 in 10.0 mi Variable 4.6 mph - N/A   Scattered Clouds
8:53 PM 68.0 °F - 48.9 °F 50% 29.92 in 10.0 mi NW 3.5 mph - N/A   Clear
9:53 PM 64.9 °F - 50.0 °F 58% 29.95 in 10.0 mi Calm Calm - N/A   Clear
10:53 PM 63.0 °F - 48.9 °F 60% 29.97 in 10.0 mi NW 3.5 mph - N/A   Clear
11:53 PM 60.1 °F - 48.9 °F 67% 29.98 in 10.0 mi Calm Calm - N/A   Clear